Weather History for KBAD - November, 2012

Change the Weather History Date:

Sunday, November 25, 2012

  Actual Average Record
Temperature  
Mean Temperature 48 °F -  
Max Temperature 67 °F 61 °F 78 °F (2010)
Min Temperature 29 °F 43 °F 26 °F (2003)
Degree Days  
Heating Degree Days 17    
Moisture  
Dew Point 37 °F    
Average Humidity 67    
Maximum Humidity 93    
Minimum Humidity 34    
Precipitation  
Precipitation 0.00 in - - ()
Sea Level Pressure  
Sea Level Pressure 30.07 in    
Wind  
Wind Speed 7 mph (SSE)    
Max Wind Speed 17 mph    
Max Gust Speed -    
Visibility 10 miles    
Events      
Averages and records for this station are not official NWS values.
T = Trace of Precipitation, MM = Missing Value Source: NWS Daily Summary

Daily Weather History Graph

Daily Weather History Graph

Search for Another Location

Airport or City:

Trip Planner

Search our weather history database for the weather conditions in past years. The results will help you decide how hot, cold, wet, or windy it might be!

Date:

Astronomy

Nov. 25, 2012 Rise Set
Actual Time 6:53 AM CST 5:09 PM CST
Civil Twilight 6:27 AM CST 5:36 PM CST
Nautical Twilight 5:56 AM CST 6:06 PM CST
Astronomical Twilight 5:27 AM CST 6:36 PM CST
Moon 3:21 PM CST (11/25) 4:14 AM CST (11/25)
Length of Visible Light 11h 09m
Length of Day
10h 16m
Waxing Gibbous, 93% of the Moon is Illuminated
Nov 25
Waxing Gibbous
Nov 28
Full
Dec 6
Last Quarter
Dec 13
New
Dec 19
First Quarter

Hourly Weather History & Observations

Time (CST) Temp. Windchill Dew Point Humidity Pressure Visibility Wind Dir Wind Speed Gust Speed Precip Events Conditions
12:55 AM 32.7 °F 29.6 °F 28.8 °F 85% 30.17 in 10.0 mi SE 3.5 mph - N/A   Clear
1:55 AM 32.7 °F - 29.1 °F 87% 30.16 in 10.0 mi Calm Calm - N/A   Clear
2:55 AM 32.9 °F 29.8 °F 29.5 °F 87% 30.15 in 10.0 mi SSE 3.5 mph - N/A   Clear
3:55 AM 31.8 °F 28.5 °F 29.5 °F 91% 30.14 in 10.0 mi SE 3.5 mph - N/A   Clear
4:55 AM 29.7 °F 23.7 °F 27.9 °F 93% 30.13 in 10.0 mi SSE 5.8 mph - N/A   Clear
5:55 AM 30.4 °F 24.5 °F 27.9 °F 90% 30.13 in 10.0 mi South 5.8 mph - N/A   Clear
6:55 AM 33.1 °F 26.1 °F 30.6 °F 90% 30.13 in 10.0 mi SSE 8.1 mph - N/A   Clear
7:55 AM 37.6 °F 32.3 °F 32.7 °F 83% 30.15 in 10.0 mi South 6.9 mph - N/A   Clear
8:55 AM 43.7 °F 38.6 °F 35.2 °F 72% 30.16 in 10.0 mi SSE 9.2 mph - N/A   Clear
9:55 AM 50.4 °F - 35.6 °F 57% 30.15 in 10.0 mi South 10.4 mph - N/A   Clear
10:55 AM 56.1 °F - 37.4 °F 49% 30.14 in 10.0 mi South 8.1 mph - N/A   Clear
11:55 AM 60.8 °F - 38.3 °F 43% 30.10 in 10.0 mi South 9.2 mph - N/A   Clear
12:55 PM 64.2 °F - 37.9 °F 38% 30.06 in 10.0 mi SSE 11.5 mph - N/A   Clear
1:55 PM 66.9 °F - 37.9 °F 34% 30.02 in 10.0 mi SSE 12.7 mph - N/A   Clear
2:55 PM 67.8 °F - 39.6 °F 36% 30.00 in 10.0 mi SSE 13.8 mph - N/A   Clear
3:55 PM 67.5 °F - 40.6 °F 38% 29.98 in 10.0 mi SSE 17.3 mph - N/A   Clear
4:55 PM 64.6 °F - 41.5 °F 43% 29.98 in 10.0 mi South 12.7 mph - N/A   Clear
5:55 PM 60.8 °F - 41.9 °F 50% 29.98 in 10.0 mi South 11.5 mph - N/A   Clear
6:55 PM 52.2 °F - 41.4 °F 67% 29.98 in 10.0 mi SSE 8.1 mph - N/A   Clear
7:55 PM 53.1 °F - 43.2 °F 69% 29.98 in 10.0 mi SSE 6.9 mph - N/A   Clear
8:55 PM 56.5 °F - 45.0 °F 65% 29.98 in 10.0 mi South 11.5 mph - N/A   Clear
9:55 PM 52.2 °F - 44.2 °F 74% 29.99 in 10.0 mi SSE 8.1 mph - N/A   Clear
10:55 PM 50.2 °F - 43.7 °F 78% 29.99 in 10.0 mi SSE 6.9 mph - N/A   Clear
11:55 PM 48.9 °F - 44.4 °F 84% 29.99 in 10.0 mi SSE 5.8 mph - N/A   Clear